User: anonymous   Login
Location: LDNL
(36.4545°S, 141.6685°E)
Time: 21:39:10
(UTC+10:00)
Language:

XW-2D - Orbit

View from above orbital plane
View from above orbital plane
View from above satellite
View from above satellite

Ground track
Ground track

The orbit data is extracted from the following two-line orbital elements,

1 40907U 15049J   22142.07927367  .00010008  00000-0  47427-3 0  9997
2 40907  97.4926 145.6679 0015324  87.6601 342.9460 15.19405172368965
Epoch (UTC): 22 May 2022 01:54:09
Eccentricity: 0.0015324
inclination: 97.4926°
perigee height: 497 km
apogee height: 518 km
right ascension of ascending node: 145.6679°
argument of perigee: 87.6601°
revolutions per day: 15.19405172
mean anomaly at epoch: 342.9460°
orbit number at epoch: 36896

The dashed part of the orbit path shows where the satellite is in the earth's shadow,  

DLR